Погода Балкашино

Погода Балкашино : погода сейчас, прогноз погоды и архив. Всё, что Вы хотите узнать о погоде Балкашино!

Поиск расширенной информации на нашем сайте:

Другие новости

Новости СМИ2

Главная страница сайта

Новости сайта

03.07.2017

Напоминаем, что на нашем специализированном сайте Метеоцентр.Азия вы можете получить высокодетализированные автоматические прогнозы погоды по пунктам России, СНГ и мира в авиационном формате (включающие направление и скорость ветра, видимость, явления погоды, количество и форму облачности, нижнюю и верхнюю границу облачности).


Погода Балкашино - сегодня

Время (UTC), дата Ветер
(°,м/с) 
Видим.   Явления Облачность Т
(°С)
Тd
(°С)
f(%) Тe
(°С)
Pmin
(гПа)
dP
(гПа)
Po
(мм)
O2
(г/м3)
Тmin Tmax R s Состояние
почвы
18 11.02.18 тихо ()   н/о    ясно 
-19.7 -21.1 89 -20  1027.3  -0.8  730  319    -12.2       
21 11.02.18 тихо ()   н/о    ясно 
-20.8 -22.3 88 -21  1027.1  -0.4  730  320           
00 12.02.18 220 (ЮЗ) н/о    ясно 
-22.9 -24.3 88 -23  1027.1  -0.4  730  323           
06 12.02.18 тихо ()   20000 м    3/0 верхняя 
[Ci fib]
-19.8 -21.2 89 -20  1026.5  730  319  -24.6         
09 12.02.18 230 (ЮЗ) 20000 м    8/0 верхняя 
[Ci sp]
-14.4 -17.1 80 -19  1025  -0.4  730  312           
12 12.02.18 230 (ЮЗ) 20000 м    4/0 верхняя 
[Ci fib]
-15.4 -17.8 82 -18  1024.9  -0.3  729  313           
15 12.02.18 тихо ()   н/о  дымка  ясно 
-19.8 -20.4 95 -20  1025.6  -0.2  729  318    -14       
21 12.02.18 110 (В) н/о  {снег}  4/3 600 м верхняя 
[Sc|Ci fib]
-22.8 -24.2 88 -23  1024.8  -1.1  728  322           
09 13.02.18 020 (С) 20000 м    3/0 верхняя 
[Cc]
-11 -14.2 77 -11  1018.7  -1.8  726  306           
12 13.02.18 030 (СВ) 20000 м  позёмок  ясно 
-13.4 -15.7 83 -20  1018.1  -1  725  308           
21 13.02.18 030 (СВ) н/о    10/0 средняя 
[Ac und]
-20.4 -22 87 -23  1018.1  -0.2  724  317           
03 14.02.18 030 (СВ) 4000 м  слаб. снег  10/0 средняя 
[As op]
-22.5 -24.3 85 -23  1018.7  0.7  724  320      0.0  19  равномерный
сухой снег
100% 
09 14.02.18 030 (СВ) 20000 м    10/0 средняя, верхняя 
[Ac lent|Cs]
-18.7 -22 75 -21  1017.9  -0.2  724  315           
21 14.02.18 тихо ()   н/о  снежные кристаллы  6/0 верхняя 
[Cs]
-25.2 -26.9 86 -25  1021.3  0.4  725  324           
03 15.02.18 тихо ()   10 км  слаб. снег  10/3 600 м средняя 
[Sc|As op]
-20.4 -22 87 -20  1022.4  1.5  727  318      0.3  20  равномерный
сухой снег
100% 
09 15.02.18 300 (СЗ) 20000 м  {снег}  3/3 600 м 
[Sc]
-13.8 -17 77 -18  1025.1  1.9  730  311           
21 15.02.18 тихо ()   н/о    ясно 
-19.6 -21.4 86 -20  1034.4  1.5  736  321           
00 16.02.18 020 (С) н/о    ясно 
-22.2 -24 85 -23  1036.6  1.5  737  325           
06 16.02.18 тихо ()   20000 м    3/0 верхняя 
[Cc]
-13.8 -16.8 78 -14  1038.3  1.2  739  315  -26         
09 16.02.18 300 (СЗ) 20000 м    3/0 верхняя 
[Cc]
-8.4 -12.6 72 -13  1038  0.7  740  309           
21 16.02.18 тихо ()   н/о  слаб. снег  10/10 600 м 
[Sc]
-14.8 -15.9 91 -15  1041.4  0.3  741  317           
03 17.02.18 тихо ()   4000 м  слаб. снег  10/6 600 м средняя 
[St|As op]
-20 -20.7 94 -20  1043.3  0.6  742  324      0.3  20  равномерный
сухой снег
100% 
09 17.02.18 230 (ЮЗ) 20000 м    3/0 верхняя 
[Ci fib]
-11.3 -13.8 82 -14  1041.4  -0.3  742  313           
12 17.02.18 220 (ЮЗ) 20000 м    ясно 
-13.8 -15.5 87 -17  1041.7  -0.2  742  316           
18 17.02.18 тихо ()   н/о    ясно 
-21.2 -22.4 90 -21  1043.7  742  326    -11.1  0.0     
Время (UTC), дата Ветер
(°,м/с) 
Видим.   Явления Облачность Т
(°С)
Тd
(°С)
f(%) Тe
(°С)
Pmin
(гПа)
dP
(гПа)
Po
(мм)
O2
(г/м3)
Тmin Tmax R s Состояние
почвы

Для получения пояснительной информации подведите курсор к названию столбца.

ПОГОДА Балкашино - архив

Всё, что Вы хотите узнать о погоде Балкашино - удобно и подробно!

Выберите нужную дату (начиная с 1 января 2015* года) и нажмите кнопку "Найти".
Будут отображены архивные сводки погоды по пункту Балкашино, начиная с указанной даты.


Отображать данные в формате CSV (для использования в таблицах Excel)


Внимание! Наш архив погоды предназначен исключительно для личного некоммерческого использования в познавательных целях. Если Вам необходимы официальные справки о состоянии погоды (для производственных, юридических, коммерческих и т.п. целей), обращайтесь в органы Росгидромета.

*Примечание: данная дата относится к архиву по метеостанциям СССР (Россия, СНГ, Балтия).
Архив по метеостанциям Зарубежной Европы и Азии (кроме Китая) хранится 10 дней, по другим регионам земного шара (Китай, Африка, Америка, Австралия, Океания) - 1 день.

Балкашино - район местоположения метеостанции


Название, широта, долгота, высота метеостанции:
Балкашино 52.5°ш. 68.8°д. 398 м над ур. моря [Казахстан]

Дополнительная информация

В oтличие oт бoльшинства пoгoдных сайтoв мы публикуем пoдрoбную метеoинфoрмацию в детальнoм прoфессиoнальнoм фoрмате.

Характеристики температуры и влажнoсти вoздуха измеряются на высoте 2 м в тени вдали oт зданий и деревьев.
Скoрoсть ветра измеряется на высoте 10 м (на урoвне рoста челoвека скoрoсть ветра ниже в 1.5-2 раза). Если метеoстанция нахoдится в гoрoде или в лесу, тo скoрoсть ветра занижена на 2-4 м/с пo сравнению с oткрытым местoм. Скoрoсть ветра над акватoриями крупных рек и oзёр, а также на вершинах хoлмoв на 2-5 м/с выше, чем в oбычных услoвиях.
Атмoсфернoе давление в разных тoчках местнoсти мoжет значительнo oтличаться oт давления на метеoстанции, в зависимoсти oт услoвий рельефа (при пoдъёме на 10 м давление пoнижается примернo на 1 мм рт.ст.).